[[{"header":{"parameterUnit":"m.s-1","parameterCategory":1,"la1":30.2991,"la2":30.254,"lo1":-89.0895,"lo2":-89.0444,"dy":0.0017,"dx":0.0017,"nx":28,"ny":28,"refTime":"2024-06-08T09:00:00:Z","depth":0,"parameterNumber":2,"parameterNumberName":"U-component_of_WINDS"},"data":[0,0,0,0,0,0,0,0,0,0,0,0,0,0,0,0,0,0,0,0,0,0,0,0,0,0,0,0,0,0,0,0,0,0,0,0,0,0,0,0,0,0,0,0,0,0,0,0,0,0,0,0,0,0,0,0,0,0,-0.4412,-0.4411,0,-0.431,-0.4309,-0.4308,-0.4271,-0.4272,-0.4272,-0.4272,-0.4167,-0.4164,-0.4161,0,0,0,0,0,0,0,0,0,0,0,0,0,-0.4572,-0.4569,-0.4412,-0.4411,-0.441,-0.431,-0.4309,-0.4307,-0.4271,-0.4272,-0.4272,-0.4273,-0.4168,-0.4164,-0.4161,0,0,0,0,0,0,0,0,0,0,0,0,0,-0.449,-0.4569,-0.4412,-0.438,-0.4376,-0.431,-0.4309,-0.4307,-0.4271,-0.4272,-0.4272,-0.4273,-0.4169,-0.4165,-0.416,-0.4119,0,0,-0.4145,-0.4143,0,0,0,0,0,0,0,0,-0.4494,-0.4484,-0.4386,-0.4382,-0.4377,-0.4304,-0.4326,-0.4244,-0.4271,-0.4311,-0.4273,-0.4273,-0.4212,-0.4204,-0.4183,-0.4114,-0.411,-0.4145,-0.4142,-0.414,-0.4139,0,0,0,0,0,0,0,-0.45,-0.4488,-0.4372,-0.4384,-0.4379,-0.4369,-0.4358,-0.4311,-0.426,-0.4307,-0.4305,-0.4293,-0.421,-0.4188,-0.4181,-0.4108,-0.4145,-0.4141,-0.4138,-0.4136,-0.3996,-0.3995,0,0,0,0,0,0,-0.4512,-0.4493,-0.4375,-0.4369,-0.4438,-0.4365,-0.4353,-0.4327,-0.426,-0.425,-0.4293,-0.4292,-0.4196,-0.4186,-0.4177,-0.4121,-0.414,-0.4136,-0.4133,-0.3996,-0.3995,-0.3994,0,0,0,0,0,0,-0.4515,-0.4502,-0.4379,-0.443,-0.4413,-0.4362,-0.4333,-0.4325,-0.4303,-0.4249,-0.4239,-0.428,-0.4196,-0.4183,-0.4133,-0.4117,-0.4134,-0.4129,-0.3998,-0.3996,-0.3995,-0.4012,0,0,0,0,0,0,-0.452,-0.4503,-0.4488,-0.443,-0.4411,-0.4338,-0.4332,-0.4322,-0.4295,-0.4293,-0.4234,-0.4225,-0.4195,-0.414,-0.4128,-0.4111,-0.4126,-0.3999,-0.3997,-0.3995,-0.4013,-0.4012,-0.4011,0,0,0,0,0,-0.4526,-0.4498,-0.4488,-0.4474,-0.4392,-0.4337,-0.4326,-0.4293,-0.4294,-0.4277,-0.4242,-0.4227,-0.4121,-0.4135,-0.4121,-0.4103,-0.3999,-0.3997,-0.3995,-0.4014,-0.4012,-0.4011,0,0,0,0,0,0,-0.4557,-0.449,-0.4478,-0.4431,-0.439,-0.4331,-0.431,-0.4293,-0.4251,-0.4251,-0.4211,-0.4198,-0.4149,-0.4121,-0.4138,-0.4057,-0.4059,-0.4054,-0.4078,-0.4076,-0.4075,-0.4082,-0.4122,0,0,0,0,0,-0.4559,-0.4521,-0.4464,-0.4428,-0.4408,-0.4362,-0.4338,-0.4315,-0.4271,-0.4254,-0.4215,-0.4172,-0.4128,-0.4101,-0.4058,-0.4009,-0.3993,-0.3989,-0.3988,-0.3987,-0.3983,-0.395,-0.3946,-0.3988,-0.3988,-0.3988,0,0,-0.4561,-0.452,-0.4499,-0.4433,-0.4399,-0.4359,-0.4348,-0.4308,-0.4277,-0.4247,-0.4196,-0.4166,-0.4115,-0.4064,-0.4039,-0.4039,-0.3968,-0.3985,-0.3985,-0.3981,-0.3948,-0.3944,-0.394,-0.3986,-0.3987,-0.3987,0,0,-0.4545,-0.4511,-0.4475,-0.444,-0.4388,-0.4357,-0.4349,-0.4291,-0.427,-0.4218,-0.4193,-0.4156,-0.4083,-0.4046,-0.4018,-0.3983,-0.3967,-0.3971,-0.3965,-0.3933,-0.393,-0.3927,-0.3911,-0.3906,-0.3967,-0.3967,-0.3967,0,-0.4555,-0.4495,-0.4459,-0.4418,-0.4388,-0.4359,-0.432,-0.4288,-0.4225,-0.4204,-0.4204,-0.4109,-0.4073,-0.401,-0.4001,-0.3981,-0.3967,-0.3977,-0.3934,-0.393,-0.3926,-0.3911,-0.3905,-0.3968,-0.3968,-0.3968,-0.3967,0,-0.4508,-0.4466,-0.4443,-0.4381,-0.4348,-0.4309,-0.4266,-0.4237,-0.4216,-0.4184,-0.4129,-0.4085,-0.403,-0.4014,-0.3995,-0.3947,-0.3948,-0.3942,-0.3942,-0.3924,-0.3908,-0.3902,-0.3969,-0.3968,-0.3968,-0.3968,0,0,-0.4511,-0.4426,-0.4418,-0.4388,-0.4326,-0.4292,-0.425,-0.4196,-0.417,-0.4127,-0.4088,-0.4025,-0.4017,-0.3985,-0.396,-0.3933,-0.3903,-0.3929,-0.3927,-0.3923,-0.3844,-0.3847,-0.3841,-0.3892,-0.3891,-0.389,-0.3847,0,-0.4485,-0.4409,-0.4373,-0.4312,-0.427,-0.4239,-0.4202,-0.4158,-0.4127,-0.4086,-0.4051,-0.4005,-0.4,-0.398,-0.3951,-0.3913,-0.3886,-0.3916,-0.3853,-0.3851,-0.3865,-0.3834,-0.3839,-0.3801,-0.3841,-0.384,-0.3839,0,-0.4445,-0.4399,-0.4333,-0.4272,-0.4253,-0.422,-0.4165,-0.4128,-0.4076,-0.4055,-0.4017,-0.3992,-0.3943,-0.3948,-0.3879,-0.3899,-0.3871,-0.3848,-0.3845,-0.3837,-0.3843,-0.3822,-0.3788,-0.3782,-0.383,-0.3831,-0.3831,0,-0.445,-0.4372,-0.4322,-0.4297,-0.4225,-0.4201,-0.417,-0.4119,-0.4087,-0.4039,-0.4017,-0.3965,-0.3935,-0.3894,-0.3854,-0.3862,-0.3787,-0.379,-0.3765,-0.3766,-0.3751,-0.3752,-0.3709,-0.3736,-0.3737,-0.3737,-0.3737,0,-0.4424,-0.4385,-0.4322,-0.4291,-0.4244,-0.4202,-0.4157,-0.4123,-0.4077,-0.4036,-0.4007,-0.3969,-0.392,-0.3876,-0.3844,-0.3789,-0.3777,-0.3756,-0.3748,-0.3758,-0.376,-0.3738,-0.3738,-0.3735,-0.3735,-0.3736,-0.3736,0,-0.4423,-0.438,-0.4322,-0.4257,-0.4239,-0.4207,-0.415,-0.4117,-0.4083,-0.4032,-0.4017,-0.3963,-0.3908,-0.3865,-0.3794,-0.3773,-0.3714,-0.3706,-0.3731,-0.3726,-0.3704,-0.3705,-0.3644,-0.3632,-0.367,-0.3669,-0.3669,0,-0.4409,-0.4377,-0.4307,-0.4277,-0.4246,-0.4199,-0.4166,-0.4122,-0.4088,-0.4024,-0.3998,-0.3941,-0.3893,-0.3807,-0.376,-0.3705,-0.3693,-0.3675,-0.3685,-0.3694,-0.3689,-0.3691,-0.3685,-0.3674,-0.3674,-0.3674,-0.3674,0,-0.4386,-0.4365,-0.4319,-0.4262,-0.4223,-0.4177,-0.4131,-0.4108,-0.4055,-0.4018,-0.3961,-0.3924,-0.3849,-0.3792,-0.3731,-0.3696,-0.3675,-0.3671,-0.3662,-0.3671,-0.3685,-0.3673,-0.3725,-0.3673,-0.3673,-0.3673,-0.3673,-0.3673,-0.4376,-0.4344,-0.4289,-0.4236,-0.4196,-0.4151,-0.4116,-0.4075,-0.4027,-0.3963,-0.394,-0.388,-0.3825,-0.374,-0.3705,-0.3656,-0.3654,-0.3642,-0.3638,-0.3636,-0.3635,-0.3694,-0.3645,-0.3645,-0.3645,-0.3645,-0.3645,0,-0.435,-0.4311,-0.4263,-0.4197,-0.4155,-0.4138,-0.4084,-0.4049,-0.3997,-0.3947,-0.3899,-0.3831,-0.3774,-0.3721,-0.3661,-0.3631,-0.3619,-0.3617,-0.3617,-0.3609,-0.3642,-0.3654,-0.3627,-0.3627,-0.3627,-0.3627,-0.3627,-0.3627,-0.4331,-0.4275,-0.4247,-0.4169,-0.413,-0.4071,-0.4041,-0.3999,-0.3958,-0.3883,-0.3835,-0.3801,-0.3748,-0.3683,-0.3628,-0.3614,-0.3591,-0.359,-0.3573,-0.3605,-0.3607,-0.3609,-0.3621,-0.3587,-0.3587,-0.3544,-0.3543,-0.3543]},{"header":{"parameterUnit":"m.s-1","parameterCategory":1,"la1":30.2991,"la2":30.254,"lo1":-89.0895,"lo2":-89.0444,"dy":0.0017,"dx":0.0017,"nx":28,"ny":28,"refTime":"2024-06-08T09:00:00:Z","depth":0,"parameterNumber":3,"parameterNumberName":"V-component_of_WINDS"},"data":[0,0,0,0,0,0,0,0,0,0,0,0,0,0,0,0,0,0,0,0,0,0,0,0,0,0,0,0,0,0,0,0,0,0,0,0,0,0,0,0,0,0,0,0,0,0,0,0,0,0,0,0,0,0,0,0,0,0,-2.1398,-2.1398,0,-2.1336,-2.1336,-2.1335,-2.134,-2.1341,-2.1342,-2.1343,-2.1274,-2.1271,-2.1269,0,0,0,0,0,0,0,0,0,0,0,0,0,-2.1515,-2.1513,-2.1398,-2.1397,-2.1397,-2.1336,-2.1336,-2.1335,-2.134,-2.1341,-2.1342,-2.1344,-2.1275,-2.1272,-2.1268,0,0,0,0,0,0,0,0,0,0,0,0,0,-2.146,-2.1512,-2.1398,-2.1392,-2.1391,-2.1337,-2.1336,-2.1334,-2.134,-2.1341,-2.1343,-2.1344,-2.1276,-2.1272,-2.1268,-2.1214,0,0,-2.1255,-2.1254,0,0,0,0,0,0,0,0,-2.1463,-2.1455,-2.1394,-2.1393,-2.1391,-2.1348,-2.1351,-2.1294,-2.1339,-2.1359,-2.1343,-2.1345,-2.1297,-2.1291,-2.1276,-2.1211,-2.1208,-2.1255,-2.1253,-2.1251,-2.125,0,0,0,0,0,0,0,-2.1467,-2.1458,-2.1374,-2.1393,-2.1391,-2.1391,-2.1384,-2.134,-2.132,-2.1358,-2.1358,-2.1351,-2.1296,-2.128,-2.1275,-2.1207,-2.1255,-2.1252,-2.1249,-2.1247,-2.1089,-2.1088,0,0,0,0,0,0,-2.1473,-2.1461,-2.1376,-2.1372,-2.1431,-2.1387,-2.138,-2.136,-2.1321,-2.1317,-2.135,-2.1351,-2.1287,-2.1279,-2.1272,-2.1203,-2.1251,-2.1247,-2.1245,-2.1091,-2.1089,-2.1087,0,0,0,0,0,0,-2.1475,-2.1465,-2.1378,-2.1417,-2.1405,-2.1384,-2.1361,-2.1358,-2.1342,-2.1315,-2.1311,-2.1337,-2.1287,-2.1278,-2.1228,-2.1201,-2.1245,-2.1241,-2.1093,-2.1091,-2.1088,-2.1066,0,0,0,0,0,0,-2.1479,-2.1466,-2.1447,-2.1416,-2.1403,-2.1336,-2.1359,-2.1356,-2.1335,-2.1337,-2.1302,-2.1298,-2.1288,-2.1234,-2.1224,-2.1196,-2.1238,-2.1095,-2.1092,-2.1089,-2.1069,-2.1063,-2.1058,0,0,0,0,0,-2.1483,-2.1442,-2.1446,-2.1435,-2.1379,-2.1335,-2.1327,-2.1318,-2.1333,-2.1312,-2.1295,-2.1299,-2.1207,-2.1229,-2.1217,-2.1188,-2.1097,-2.1093,-2.1089,-2.1071,-2.1064,-2.1058,0,0,0,0,0,0,-2.1468,-2.1438,-2.1441,-2.1391,-2.1365,-2.1336,-2.1309,-2.1311,-2.128,-2.1282,-2.1271,-2.1263,-2.1212,-2.1196,-2.1221,-2.1132,-2.1153,-2.1147,-2.1144,-2.1136,-2.1131,-2.1134,-2.1235,0,0,0,0,0,-2.146,-2.1428,-2.1403,-2.136,-2.1348,-2.1331,-2.1311,-2.1307,-2.1279,-2.1268,-2.1247,-2.1219,-2.1183,-2.116,-2.1126,-2.1068,-2.1058,-2.1042,-2.1036,-2.1032,-2.1025,-2.0989,-2.098,-2.1074,-2.1074,-2.1075,0,0,-2.144,-2.142,-2.1401,-2.1357,-2.1337,-2.1302,-2.1322,-2.1285,-2.1257,-2.1262,-2.1212,-2.1196,-2.1164,-2.1109,-2.1083,-2.1093,-2.0997,-2.1027,-2.1024,-2.1019,-2.0984,-2.0975,-2.0967,-2.1072,-2.1072,-2.1073,0,0,-2.1386,-2.137,-2.1331,-2.1311,-2.1281,-2.127,-2.126,-2.1231,-2.122,-2.1171,-2.1173,-2.114,-2.108,-2.1055,-2.1035,-2.0972,-2.0972,-2.0961,-2.093,-2.0896,-2.0888,-2.0881,-2.0854,-2.0845,-2.0956,-2.0956,-2.0956,0,-2.1365,-2.1315,-2.131,-2.1272,-2.1251,-2.1256,-2.1214,-2.1194,-2.1154,-2.1138,-2.1151,-2.1074,-2.1053,-2.099,-2.0975,-2.096,-2.0945,-2.0963,-2.089,-2.0883,-2.0877,-2.0851,-2.0841,-2.0954,-2.0954,-2.0954,-2.0955,0,-2.1289,-2.1253,-2.1225,-2.1187,-2.1164,-2.1124,-2.1111,-2.1087,-2.1085,-2.1072,-2.102,-2.0995,-2.0954,-2.094,-2.0937,-2.0876,-2.0883,-2.0893,-2.0914,-2.0867,-2.0842,-2.0832,-2.0952,-2.0952,-2.0953,-2.0953,0,0,-2.1221,-2.1182,-2.1171,-2.1152,-2.112,-2.1091,-2.1051,-2.1013,-2.0991,-2.0963,-2.0926,-2.0876,-2.0884,-2.0861,-2.0856,-2.0826,-2.0772,-2.084,-2.0839,-2.0824,-2.0698,-2.0687,-2.0676,-2.0775,-2.0773,-2.0772,-2.0699,0,-2.1161,-2.1091,-2.1085,-2.1021,-2.0986,-2.099,-2.0955,-2.0929,-2.0916,-2.0883,-2.0868,-2.083,-2.0847,-2.0833,-2.0804,-2.0785,-2.0746,-2.0791,-2.0736,-2.0734,-2.0739,-2.0664,-2.0652,-2.0585,-2.069,-2.0689,-2.0687,0,-2.108,-2.1051,-2.0983,-2.0954,-2.0939,-2.0907,-2.087,-2.084,-2.081,-2.0803,-2.0777,-2.0775,-2.0731,-2.0757,-2.0693,-2.0723,-2.0701,-2.0689,-2.0686,-2.0676,-2.0704,-2.0647,-2.0564,-2.0552,-2.0673,-2.0674,-2.0675,0,-2.1032,-2.0976,-2.0927,-2.0912,-2.0878,-2.0854,-2.0838,-2.0811,-2.0787,-2.0755,-2.0739,-2.0702,-2.068,-2.065,-2.0637,-2.0658,-2.0573,-2.0599,-2.0561,-2.0561,-2.0539,-2.0539,-2.0445,-2.0533,-2.0533,-2.0533,-2.0534,0,-2.0962,-2.0919,-2.0905,-2.0875,-2.0826,-2.082,-2.0771,-2.0756,-2.0731,-2.0696,-2.0699,-2.0665,-2.0652,-2.0616,-2.0606,-2.0552,-2.0543,-2.0533,-2.053,-2.053,-2.053,-2.0511,-2.0513,-2.0531,-2.0531,-2.0532,-2.0532,0,-2.0898,-2.0887,-2.0834,-2.0806,-2.0798,-2.0763,-2.0737,-2.0707,-2.0695,-2.065,-2.0639,-2.0619,-2.0576,-2.0562,-2.051,-2.0503,-2.0438,-2.0442,-2.0448,-2.0446,-2.0407,-2.0409,-2.0294,-2.0276,-2.038,-2.0379,-2.0379,0,-2.0852,-2.0819,-2.0788,-2.0765,-2.0748,-2.0712,-2.0688,-2.0681,-2.0656,-2.0619,-2.0591,-2.055,-2.0515,-2.0446,-2.0425,-2.0384,-2.0383,-2.0346,-2.0377,-2.0377,-2.0376,-2.0376,-2.0371,-2.0338,-2.0337,-2.0336,-2.0336,0,-2.0769,-2.0765,-2.0732,-2.0696,-2.0668,-2.0639,-2.0611,-2.0592,-2.058,-2.0551,-2.0508,-2.0482,-2.0429,-2.0385,-2.0343,-2.0324,-2.0325,-2.0327,-2.0315,-2.0312,-2.0314,-2.0307,-2.0427,-2.0328,-2.0329,-2.0329,-2.033,-2.033,-2.0708,-2.0678,-2.0651,-2.0613,-2.0592,-2.0565,-2.0534,-2.0519,-2.0483,-2.044,-2.0438,-2.039,-2.0359,-2.0304,-2.0283,-2.0243,-2.0253,-2.0238,-2.0232,-2.0227,-2.0222,-2.0326,-2.0236,-2.0237,-2.0237,-2.0237,-2.0237,0,-2.0621,-2.0604,-2.057,-2.0531,-2.05,-2.0509,-2.0478,-2.0451,-2.0409,-2.0382,-2.0348,-2.0296,-2.0254,-2.0231,-2.0187,-2.016,-2.0159,-2.0148,-2.0147,-2.0142,-2.0218,-2.023,-2.0149,-2.0149,-2.0149,-2.0149,-2.0149,-2.0149,-2.0572,-2.052,-2.0513,-2.0449,-2.0432,-2.0386,-2.0367,-2.0342,-2.0319,-2.0262,-2.0228,-2.0214,-2.0186,-2.0141,-2.0102,-2.0096,-2.0077,-2.0064,-2.0058,-2.0128,-2.0137,-2.0145,-2.0156,-2.0062,-2.0062,-1.9985,-1.9984,-1.9983]}]]